Theta_e
326 329 330 330 329 330 330 330 330 331 331 331 330 331 332 332 332 331 333 333 331 329 330 330 328 327 327 328 328 329 327 325 324 324 324 324 325 325 324 324 323 324 324 323 322 324 321 320 320 320 320 319 318 317 316 316 317 315 315 317 315 312 312 313 313 314 312 312 312 314 314 317 321 318 318 318 316 313 310 310 312 310 309 308 308
327 327 328 329 329 329 330 330 330 328 329 330 330 331 332 332 332 332 332 330 328 328 329 328 327 327 328 328 328 326 324 322 321 322 323 324 324 323 322 321 321 321 323 320 320 319 318 318 318 317 318 317 317 317 316 317 314 314 314 313 314 312 310 311 311 312 309 309 310 312 312 313 317 315 316 317 314 311 309 309 310 308 307 306 306
325 327 327 327 328 328 329 329 330 330 329 330 331 332 332 332 332 332 331 328 328 330 328 327 327 329 329 328 327 324 325 323 322 323 323 321 321 321 321 320 319 319 319 320 317 316 316 316 316 316 315 317 314 313 312 312 312 312 312 311 310 311 311 312 310 311 306 308 311 312 309 308 309 310 311 315 312 309 308 308 309 307 306 305 304
323 324 325 326 327 328 329 329 329 330 329 329 331 331 332 332 332 331 329 328 328 330 329 328 329 330 329 327 324 322 321 323 321 321 320 319 318 319 318 318 318 317 317 317 315 314 314 314 314 314 314 315 312 311 310 310 310 310 311 312 309 306 306 307 311 309 309 306 304 306 308 306 302 305 306 309 310 307 306 306 307 306 304 304 302
323 324 325 325 326 326 328 329 330 329 329 330 331 331 331 331 331 330 330 330 330 331 329 330 331 328 326 324 323 321 321 320 319 318 319 319 317 316 315 316 316 315 315 315 316 313 313 313 313 313 313 312 312 310 309 309 309 309 309 309 308 305 304 305 307 309 309 312 309 305 303 303 303 305 305 302 308 306 305 304 307 305 303 303 300
324 324 324 325 326 327 328 328 329 330 330 331 332 331 332 331 330 329 329 330 330 329 329 330 329 325 323 321 319 318 317 317 315 314 314 314 313 315 314 314 314 314 314 314 315 315 312 313 312 312 311 311 311 310 309 309 308 308 308 308 307 307 304 304 303 308 309 310 309 309 308 302 301 302 300 296 304 305 304 304 302 303 302 301 300
324 324 325 325 326 327 327 327 329 329 330 331 331 331 331 330 330 328 329 329 329 328 330 330 326 325 323 322 321 319 317 317 317 316 314 314 313 312 312 312 313 313 313 313 313 314 312 312 312 311 311 311 313 309 308 308 309 309 310 307 307 307 304 303 302 303 304 307 307 306 305 304 303 300 296 298 294 298 301 301 299 301 301 300 299
323 323 324 326 327 327 326 328 329 329 330 331 330 330 329 328 327 327 328 328 328 329 329 329 326 325 324 322 321 318 316 315 316 315 315 315 312 312 312 311 312 312 312 313 314 314 313 311 311 311 311 311 311 308 308 308 308 309 309 307 308 307 305 303 302 303 302 302 305 303 303 302 301 300 299 298 297 293 293 298 298 298 298 298 298
323 322 324 326 326 327 327 328 330 330 330 329 329 328 328 327 326 326 327 327 327 328 329 328 328 326 324 322 320 318 317 317 318 317 315 314 312 312 311 311 311 312 312 312 311 313 315 311 311 310 310 311 313 308 308 307 307 306 305 305 304 304 305 304 302 301 301 299 299 299 299 298 298 298 298 298 296 291 291 291 291 295 295 296 296
324 324 326 327 327 327 328 329 329 329 330 329 328 327 326 325 324 324 323 324 326 328 328 327 326 325 322 321 319 318 318 316 316 315 313 312 310 310 310 310 310 311 311 310 309 309 309 310 310 310 310 312 311 307 307 306 305 305 305 304 303 302 303 302 301 300 300 300 299 298 296 296 295 294 294 294 294 294 289 289 290 290 289 292 295
324 324 326 327 328 328 329 328 328 329 329 327 326 324 323 323 322 320 319 321 325 326 327 326 325 324 322 321 319 317 317 316 314 313 312 310 309 308 308 308 308 308 308 307 307 307 308 311 308 308 308 310 306 304 304 305 304 303 303 303 302 301 300 300 300 300 299 299 297 297 295 295 293 292 291 292 292 290 289 289 290 291 290 290 292
325 325 325 326 326 327 328 327 327 328 327 325 324 322 321 320 319 317 317 319 322 324 325 325 325 324 322 321 319 318 317 315 313 311 310 308 308 306 306 307 306 306 305 304 305 305 306 305 307 305 305 303 303 303 303 304 304 303 302 302 301 301 301 301 299 298 297 297 296 296 295 295 294 293 293 293 292 291 290 288 289 290 290 290 293
324 324 325 325 325 325 325 326 326 326 325 323 322 321 320 319 318 316 315 317 319 320 321 323 323 323 322 320 319 318 316 314 313 310 308 306 306 306 304 304 304 304 303 303 303 304 305 303 303 303 303 304 303 303 303 303 303 302 302 301 301 300 299 299 298 297 297 296 295 295 295 294 293 294 294 293 293 292 291 288 289 290 287 288 290
324 325 325 325 325 325 326 326 326 324 323 321 320 319 319 318 317 316 314 315 316 317 318 319 321 321 321 320 319 317 314 313 311 308 307 306 306 305 305 304 304 303 303 302 302 303 303 303 303 302 302 303 304 303 303 303 303 302 301 300 300 299 299 298 297 297 296 296 295 294 294 294 293 294 293 293 292 291 289 288 288 288 288 288 289
324 324 324 324 325 325 325 325 324 323 321 320 319 318 318 317 316 315 313 313 314 314 315 316 316 318 318 318 317 316 313 311 309 309 308 307 306 306 305 305 303 302 302 302 303 302 303 303 303 301 301 301 301 301 302 301 302 302 302 301 300 299 298 298 297 296 296 295 295 295 295 294 293 294 293 293 293 292 291 290 288 286 286 286 287
324 323 323 324 325 325 325 324 323 321 320 319 318 317 316 316 315 314 313 312 313 313 312 313 313 314 315 315 314 314 313 311 310 310 308 308 306 306 305 304 303 302 303 302 301 301 300 300 301 300 300 301 301 301 300 300 300 300 300 300 299 301 297 296 296 295 294 294 294 294 293 293 294 294 295 293 293 293 292 291 290 287 285 283 286
323 323 323 324 324 324 324 322 321 320 319 318 317 317 315 314 314 313 312 312 312 311 311 312 312 313 313 313 312 311 310 308 307 307 307 307 307 306 304 303 303 303 303 302 300 300 299 298 298 298 299 299 300 300 300 300 300 299 299 298 298 298 298 296 296 295 294 294 293 293 293 293 293 294 293 294 293 292 292 291 290 288 288 285 284
323 323 323 324 324 324 323 322 321 320 319 317 316 315 314 314 313 312 312 311 310 310 310 311 311 311 310 310 310 309 308 307 307 306 307 307 306 305 304 303 301 302 301 301 298 298 298 301 297 297 298 298 298 299 299 299 299 299 298 298 298 298 297 297 297 295 294 295 295 293 293 292 293 292 292 293 292 292 291 291 290 291 290 286 286
321 321 322 322 323 323 322 321 320 319 318 317 315 315 313 313 313 312 311 310 310 310 311 310 310 310 310 309 309 308 308 307 308 308 307 306 305 304 302 300 300 300 300 297 296 296 296 296 296 296 297 297 297 298 299 299 299 298 298 297 297 297 296 295 295 295 295 294 293 292 292 291 292 291 291 291 291 292 291 291 290 291 291 289 287
321 321 321 322 322 322 321 320 319 318 316 316 315 314 313 312 312 311 310 310 310 310 310 309 309 309 309 308 308 308 308 308 308 307 306 306 305 302 300 299 298 299 296 296 295 295 296 295 296 296 296 296 296 297 298 298 298 297 297 296 296 296 295 294 294 294 295 293 293 292 292 291 291 290 290 290 290 291 291 290 290 290 290 289 289
320 320 321 321 321 321 320 319 319 317 316 315 314 313 312 312 311 311 309 308 309 309 309 309 309 308 308 307 307 307 307 308 307 307 306 304 303 301 299 298 298 296 295 295 295 294 295 295 295 297 295 295 295 295 296 297 298 297 296 296 295 295 294 294 295 293 294 293 294 292 291 292 291 289 289 290 290 290 290 290 291 290 289 289 288
320 321 320 320 320 320 319 318 317 316 315 314 314 312 311 311 310 310 309 309 308 308 308 308 308 307 307 307 306 306 306 307 306 306 304 302 300 299 299 297 296 295 295 294 294 294 294 294 294 294 294 294 294 294 294 296 297 296 296 297 295 295 294 293 293 292 292 294 292 291 291 291 291 289 289 289 289 289 289 289 289 290 288 289 290
320 320 320 320 319 318 318 317 316 315 314 313 313 312 311 310 310 310 309 308 309 309 309 308 307 306 306 305 305 305 306 305 304 303 302 301 300 299 298 296 295 295 295 294 293 293 293 293 293 292 292 292 293 293 293 294 295 295 295 294 295 294 294 293 292 292 292 292 292 292 291 291 292 288 289 288 289 288 289 288 289 289 288 289 289
320 320 320 320 319 318 317 315 315 314 313 312 312 312 311 310 310 310 309 309 309 309 308 307 306 305 305 306 305 305 304 304 302 302 300 299 299 298 298 296 295 294 294 294 293 292 292 291 292 291 291 291 292 292 292 293 293 294 295 295 294 294 293 293 293 292 292 291 291 290 291 290 291 288 287 288 288 288 288 289 289 289 289 288 289
318 318 318 318 317 316 315 315 315 314 313 312 312 311 310 310 310 310 310 310 309 308 307 307 306 305 305 305 304 304 302 302 301 300 299 299 298 297 297 295 294 294 293 293 294 292 291 291 291 290 290 290 290 291 292 292 292 293 294 294 293 293 293 293 293 293 297 291 292 290 290 290 289 287 288 288 288 287 288 289 288 288 289 289 290
318 317 317 316 316 316 315 315 314 314 313 312 311 311 310 310 310 310 309 308 307 307 306 306 306 305 304 303 303 303 302 301 300 299 299 298 298 297 296 295 294 293 292 292 291 292 292 290 290 290 290 290 290 290 290 290 291 292 293 293 293 293 293 292 292 293 293 292 292 290 291 289 288 287 288 288 287 287 288 288 288 288 288 288 288
317 317 317 317 316 315 315 315 314 314 313 312 311 311 310 310 309 310 309 308 307 307 307 306 305 304 303 302 302 302 302 301 300 299 299 298 297 296 295 294 294 292 291 291 291 290 291 290 290 290 290 290 290 290 289 289 290 291 292 292 292 293 293 292 292 293 292 292 291 291 290 289 288 287 288 288 288 288 289 289 290 289 289 288 288
317 317 316 316 316 315 315 314 314 313 313 312 312 311 310 309 308 308 307 306 307 306 305 305 305 304 303 302 302 302 301 300 300 299 298 298 297 296 295 294 293 291 291 290 290 290 291 290 290 291 291 291 290 290 289 289 289 289 291 291 292 293 293 293 293 292 292 291 291 291 290 290 289 289 288 289 288 289 289 289 289 289 289 288 288
316 316 316 316 315 315 314 314 313 313 312 311 311 310 310 310 309 307 306 306 306 305 305 305 304 303 303 303 303 302 301 301 300 299 298 297 297 296 295 294 293 293 293 290 290 290 289 289 289 289 289 290 291 291 291 290 289 289 289 291 291 292 292 292 292 291 291 291 291 291 290 290 295 301 301 299 298 298 293 290 290 289 290 289 288
315 315 316 316 316 315 314 314 313 312 311 311 310 310 309 308 307 306 306 306 307 306 305 304 303 302 302 302 302 302 301 300 299 298 298 297 296 296 295 293 292 292 291 291 290 290 289 288 288 288 289 290 290 291 295 295 297 291 290 291 293 291 292 292 293 291 291 291 291 290 295 303 302 301 300 298 296 296 297 294 292 291 290 288 288
316 316 316 316 315 314 314 313 313 312 311 310 310 310 309 309 308 306 306 307 307 305 304 303 303 302 302 302 302 301 300 300 299 298 298 297 296 295 293 292 292 291 291 292 289 288 288 288 288 288 288 289 290 292 293 292 293 296 292 292 292 291 290 290 292 291 290 292 291 290 289 295 298 297 295 295 295 294 293 293 294 295 295 292 288
316 316 316 315 315 314 313 313 312 312 311 310 310 310 309 308 307 307 307 307 306 305 303 303 303 302 302 301 301 300 299 299 299 298 298 296 295 293 292 291 290 290 290 289 288 288 287 287 288 288 288 289 289 294 292 293 293 293 295 293 291 291 291 290 289 289 290 291 289 289 290 291 292 293 295 292 292 293 293 293 293 293 293 292 292
316 316 315 315 315 314 314 313 313 312 311 311 311 309 308 308 307 307 307 306 305 304 303 303 303 302 301 301 300 300 299 299 299 298 297 295 293 292 290 289 289 290 288 288 287 287 286 286 287 287 288 288 288 293 292 292 292 292 292 292 290 290 290 289 289 290 289 289 290 291 291 291 290 297 297 290 289 290 293 293 293 293 292 293 291
316 316 316 316 315 315 314 314 313 313 312 312 311 310 309 309 309 308 307 306 305 304 304 303 302 302 301 300 300 299 299 299 299 298 296 294 292 290 289 289 290 289 287 287 286 286 286 286 287 287 287 287 288 292 292 292 292 291 291 292 288 289 289 289 289 289 290 289 289 289 288 289 290 290 291 290 290 289 289 289 288 288 288 290 291
315 315 315 315 315 314 313 313 313 312 312 311 310 310 310 309 308 306 306 305 304 304 303 302 301 301 300 300 300 299 299 299 298 298 296 294 291 290 289 289 288 288 287 287 287 286 286 288 286 285 287 287 289 291 291 291 291 291 291 291 287 289 288 288 288 289 288 288 288 289 287 288 289 289 292 293 290 289 288 288 287 287 287 288 288
316 316 315 315 314 314 313 313 313 312 312 311 309 308 307 306 306 305 304 304 303 303 302 302 301 300 300 300 300 299 299 298 298 297 296 294 292 290 289 289 288 287 287 288 287 288 287 285 285 285 286 285 287 291 291 291 291 291 292 290 286 286 286 287 287 288 288 288 288 288 288 289 290 290 293 292 291 290 288 287 287 287 287 287 287
316 317 316 316 315 314 314 313 312 312 310 310 309 308 306 305 305 304 303 303 302 302 301 301 301 300 300 300 300 299 299 298 298 297 296 295 293 291 290 291 288 288 288 288 288 287 287 286 286 286 285 285 287 290 290 291 291 290 290 286 285 286 286 286 285 286 287 288 288 289 290 290 290 289 292 290 290 291 287 286 286 286 286 286 287
316 315 314 314 314 314 313 313 311 310 309 309 308 307 306 305 304 303 302 302 302 301 301 301 300 300 300 300 300 299 299 298 298 297 296 295 294 292 291 292 290 289 289 289 289 288 286 287 286 285 285 286 287 290 291 290 291 291 291 285 286 285 284 285 285 286 287 287 287 296 296 290 289 289 291 290 289 290 287 286 285 285 285 285 286
315 314 313 312 312 313 313 312 310 308 308 308 307 307 305 304 303 303 302 301 301 301 301 300 300 300 300 300 299 299 298 298 298 297 296 295 294 293 293 292 291 291 291 290 292 289 287 287 287 286 295 288 287 290 291 290 290 291 290 284 285 283 284 283 284 287 287 287 287 290 293 293 291 291 290 289 289 290 287 286 285 284 284 284 286
313 313 313 313 312 312 311 310 308 307 307 307 307 306 305 304 303 302 301 300 300 300 300 301 300 300 300 299 299 299 299 298 298 297 296 295 294 293 292 291 291 291 291 290 291 290 289 289 289 290 292 290 287 287 290 290 291 290 292 286 285 284 285 284 283 288 288 286 286 286 290 290 290 289 289 289 289 290 287 287 285 284 284 284 287
312 311 308 311 311 311 310 309 308 307 306 306 306 305 304 304 302 301 300 300 300 301 301 301 300 300 299 299 299 299 298 298 298 296 296 295 294 292 291 291 291 291 290 289 290 290 290 289 289 290 291 289 289 287 289 290 290 290 291 290 283 284 284 284 283 285 283 284 285 286 286 290 290 289 289 289 289 290 290 289 286 285 285 288 289
310 308 310 311 310 310 309 308 307 306 305 305 306 304 304 302 301 299 300 300 301 301 301 300 299 299 299 299 299 299 298 298 297 296 295 293 292 292 291 291 292 292 291 291 291 291 291 289 289 291 291 289 292 295 286 291 290 290 290 291 286 287 287 285 285 283 284 284 285 286 286 289 290 289 289 289 289 289 289 290 287 288 288 288 288
308 307 309 310 309 308 307 307 307 306 305 305 305 304 302 301 299 299 300 300 300 300 299 299 298 298 298 298 298 298 298 298 297 296 295 292 291 292 292 292 292 292 292 292 291 290 289 289 290 291 292 290 288 291 294 290 291 289 290 290 290 287 289 290 284 285 284 285 285 286 288 291 289 289 289 289 289 289 290 288 288 288 288 288 289
309 310 309 309 309 308 306 306 306 306 305 305 305 303 302 300 299 300 300 300 300 299 298 298 298 298 298 298 298 298 298 297 296 295 295 293 292 293 293 293 292 292 291 291 290 290 289 289 290 290 292 290 289 288 292 293 290 290 289 289 289 289 289 287 287 285 285 284 286 285 288 289 289 289 289 289 289 289 288 288 288 288 288 288 286
308 308 308 308 308 306 305 304 305 305 305 305 305 303 301 300 299 299 299 299 298 298 297 297 297 297 297 298 298 297 297 296 296 296 295 295 294 294 293 292 292 291 291 291 290 291 290 290 290 290 290 290 290 288 286 289 291 290 289 289 288 288 289 289 285 286 287 287 288 289 289 289 288 289 289 288 288 289 288 288 288 288 290 284 284
308 307 307 308 307 306 304 303 304 304 304 305 305 304 301 300 299 299 299 299 298 297 297 296 296 297 297 297 296 296 296 296 296 296 296 296 295 294 294 293 293 292 292 292 291 291 291 290 290 290 289 290 290 286 287 285 291 292 291 289 289 289 290 290 290 288 289 289 289 289 289 288 288 289 288 286 285 287 288 288 288 289 284 283 283
307 306 306 307 306 305 303 303 302 304 304 304 304 304 303 300 298 299 298 298 297 297 297 296 296 296 296 296 295 295 295 295 295 296 296 296 295 294 294 294 293 293 292 292 291 291 290 290 289 289 288 288 288 286 286 285 284 284 283 286 285 286 291 290 286 286 288 287 289 289 288 287 288 288 288 288 287 287 286 285 284 283 283 283 284
307 306 307 306 306 305 303 302 302 303 303 303 303 303 301 299 299 299 298 298 297 297 296 296 296 296 296 296 295 293 294 295 295 295 295 295 295 295 294 294 294 293 293 292 291 290 290 290 290 289 288 288 287 287 286 285 285 284 285 281 281 287 282 282 284 285 285 287 287 288 287 285 285 285 284 283 283 284 283 283 284 283 283 283 286
305 305 306 306 305 304 303 302 302 302 302 302 302 301 300 298 298 298 298 297 296 295 296 296 296 296 295 296 296 296 296 295 295 295 295 295 295 295 295 294 295 295 295 294 292 291 291 292 292 290 289 288 287 287 288 289 288 288 285 283 283 282 282 282 288 289 288 286 283 284 284 284 283 283 282 282 282 282 282 283 283 283 283 282 282
305 306 306 305 305 304 302 302 301 301 302 301 300 299 299 298 298 298 298 297 296 296 296 295 296 295 295 295 295 295 296 296 295 294 294 292 290 293 294 295 294 294 293 293 293 293 293 291 291 291 292 291 289 290 291 290 289 288 288 288 288 288 288 286 288 288 287 282 281 279 281 281 282 280 281 280 281 281 281 282 282 284 283 282 282
304 304 303 303 303 302 301 300 300 301 301 300 299 298 298 298 298 298 298 297 296 295 295 295 295 295 294 295 295 295 296 295 295 294 294 292 291 289 288 289 291 292 291 291 291 292 291 291 293 291 290 291 291 291 290 290 289 289 288 288 288 288 288 288 288 283 279 279 278 280 282 281 280 281 279 280 280 280 279 280 281 281 281 282 282
Wind_Speed
7 6 7 8 9 7 6 6 8 8 7 8 8 7 8 8 8 7 6 4 6 6 5 6 7 6 5 6 7 5 6 6 6 5 5 5 4 4 4 4 3 4 4 3 4 5 5 3 4 5 6 7 7 6 4 4 3 2 2 4 5 7 8 8 8 4 4 5 4 4 4 3 5 8 8 8 8 7 7 8 7 9 9 10 9
8 7 8 9 8 8 7 7 9 9 7 7 8 8 8 9 8 7 5 4 3 4 6 4 3 5 6 6 7 6 6 6 6 5 5 4 4 4 4 4 5 4 4 4 5 5 5 6 6 5 5 6 6 5 5 5 6 6 3 4 5 7 6 7 8 5 5 3 4 5 6 3 3 6 9 7 7 8 8 8 8 9 10 9 8
10 8 8 9 10 9 7 7 7 8 9 7 6 9 9 7 7 6 6 5 4 5 3 4 4 5 7 6 7 6 4 4 5 4 4 5 5 5 5 5 5 5 5 6 6 6 6 6 5 5 6 5 6 7 6 7 5 6 6 4 4 4 5 6 8 7 2 3 1 2 3 3 3 4 3 6 7 7 8 9 8 9 11 9 9
13 11 10 10 9 9 8 8 7 7 8 8 8 9 7 7 7 7 6 6 6 6 4 2 5 7 7 7 6 5 6 5 6 5 5 6 7 5 6 6 6 7 7 6 6 6 6 6 5 6 6 5 6 6 6 7 6 7 7 7 3 5 5 7 7 7 5 3 4 2 1 2 4 3 7 4 6 9 10 10 8 8 9 10 9
13 12 12 10 10 10 9 7 7 8 8 9 8 7 6 8 7 7 7 7 7 7 7 8 8 8 8 8 8 8 6 5 5 5 5 5 6 7 6 6 7 7 6 6 6 6 5 5 6 6 7 6 5 6 6 5 5 6 7 7 7 3 5 4 7 7 9 7 2 3 3 4 1 4 6 2 1 6 7 10 9 7 9 9 9
9 11 10 11 10 9 8 8 8 7 8 7 7 7 7 7 7 6 6 7 8 8 9 9 9 10 9 9 7 6 5 4 4 5 5 5 4 3 6 6 6 6 6 6 6 5 6 6 6 7 6 6 6 6 5 6 7 7 6 6 7 6 4 5 5 5 8 10 10 7 4 2 3 4 4 4 4 2 5 8 10 7 7 8 8
10 8 9 12 11 9 9 9 8 9 7 7 7 7 7 7 6 6 6 7 8 9 9 8 8 8 9 8 8 8 8 4 4 4 6 5 5 6 5 5 5 6 5 5 5 5 5 6 6 6 6 6 5 6 7 6 6 6 6 6 6 5 4 7 6 4 4 9 8 9 9 7 5 4 3 4 4 4 4 6 7 8 6 7 9
11 11 11 11 11 11 11 10 8 8 8 8 8 7 8 7 7 6 5 6 6 8 8 8 9 8 7 6 6 6 6 8 6 6 5 5 6 5 5 5 5 5 5 5 5 5 5 6 6 6 6 5 5 6 6 5 6 6 6 6 6 6 6 7 7 7 7 4 5 8 7 7 7 8 4 2 1 6 3 2 5 7 4 5 7
11 12 13 12 12 11 10 10 8 9 8 8 8 7 6 6 6 5 6 6 6 8 8 7 7 8 7 7 7 5 7 7 6 6 6 5 7 4 5 4 5 5 5 5 5 5 5 5 5 5 6 5 5 6 5 6 6 7 8 8 8 8 7 6 8 8 8 7 5 6 6 7 6 7 7 5 6 4 5 8 12 2 1 5 6
10 11 11 11 11 10 9 9 8 8 7 8 8 7 6 6 6 6 5 5 6 7 7 6 6 7 8 7 10 8 7 6 6 7 7 5 6 4 4 4 3 4 4 6 5 5 5 5 5 5 5 5 5 6 6 7 7 7 7 7 8 9 7 8 9 8 8 8 8 6 8 6 7 7 9 8 3 6 4 9 9 14 15 7 5
10 11 10 9 10 10 10 11 9 8 8 9 8 7 7 7 7 7 4 5 5 7 7 8 7 7 8 8 9 10 8 9 8 7 6 5 6 4 4 4 4 4 4 5 5 5 5 5 6 6 6 6 6 7 6 6 6 7 7 8 8 9 8 9 10 9 9 9 9 9 8 8 7 7 6 7 6 5 7 8 10 9 8 11 6
11 12 12 10 12 11 10 10 11 10 10 9 8 8 8 7 8 8 5 5 6 6 7 8 8 7 7 9 10 10 10 8 9 9 7 7 6 6 4 4 4 4 4 5 5 5 5 5 5 6 7 7 7 5 6 6 6 7 7 7 7 8 8 9 9 10 10 9 9 8 8 7 7 7 5 5 6 5 3 4 7 9 5 2 6
12 13 13 11 12 12 12 11 11 11 10 10 9 9 8 8 9 9 6 6 6 7 7 7 8 8 8 8 8 7 8 8 8 8 7 7 6 6 4 5 4 5 5 6 4 5 5 6 7 7 6 6 6 6 5 6 7 7 8 8 9 9 8 9 9 9 9 9 8 7 7 7 7 4 4 4 3 2 4 6 4 3 4 8 6
12 13 13 11 11 11 11 11 11 10 11 11 9 10 8 8 8 10 6 5 6 7 8 8 7 7 7 8 8 7 8 8 8 8 6 6 6 6 5 5 5 5 5 5 3 5 6 5 6 6 5 6 6 6 6 6 7 8 8 9 9 8 9 10 10 9 9 8 7 7 6 6 5 4 3 4 4 4 4 3 5 3 3 5 5
10 11 13 13 12 12 11 10 10 10 12 11 9 9 9 9 9 10 8 5 7 7 7 8 7 7 7 7 7 7 7 7 7 7 7 7 5 6 5 5 6 5 6 3 4 6 5 6 6 6 6 6 6 6 6 6 7 8 8 9 8 8 9 9 8 9 9 9 7 6 6 5 5 4 5 5 4 4 3 3 5 9 6 3 8
11 11 13 14 12 12 11 10 10 11 12 10 10 9 10 9 9 9 10 7 7 7 6 8 7 7 7 8 7 7 7 7 7 6 5 6 6 7 6 5 5 5 4 5 4 5 6 6 6 6 6 6 6 6 6 6 7 8 8 8 9 6 9 10 8 9 9 7 6 4 6 6 5 5 5 5 5 4 4 4 4 3 5 7 7
11 12 13 14 13 12 12 11 10 11 11 11 10 10 12 10 10 10 8 7 7 7 7 7 7 8 7 7 7 8 9 9 8 7 7 6 6 6 7 6 5 5 5 4 6 5 6 6 6 6 6 5 6 5 6 6 7 8 8 9 9 7 8 8 7 8 6 6 5 5 5 5 5 4 5 5 5 5 5 4 3 3 2 2 6
12 11 12 12 14 13 12 11 11 12 11 11 10 9 10 10 11 12 9 9 6 7 7 7 8 8 7 7 7 8 8 8 8 8 7 7 6 6 6 6 5 5 5 5 6 6 6 6 6 6 5 6 6 5 5 6 8 8 8 8 7 7 7 6 6 6 5 5 5 5 5 6 4 5 5 4 4 3 4 4 3 4 1 2 3
12 12 13 12 12 13 13 13 11 12 11 10 9 9 9 9 9 11 10 8 8 6 6 6 6 6 6 7 8 7 7 7 7 8 7 8 8 7 7 6 6 5 6 6 6 6 6 6 6 6 6 6 6 6 5 6 7 8 7 7 6 7 7 6 4 5 4 5 5 5 4 5 4 5 4 4 3 3 4 3 4 3 3 1 3
13 11 12 13 12 13 14 14 14 13 12 11 11 10 11 10 10 9 8 8 7 7 7 7 5 7 6 6 6 7 7 8 8 8 7 8 8 9 8 6 6 5 6 6 6 6 5 6 5 6 6 6 6 5 6 6 7 7 7 7 6 7 7 6 4 4 4 5 5 4 3 3 3 3 3 4 3 3 3 4 3 4 4 3 2
14 12 12 12 12 12 14 13 11 11 10 10 10 12 11 10 9 9 12 9 8 7 7 6 6 7 8 8 7 7 8 7 8 7 8 7 8 8 7 6 6 6 6 6 6 5 5 5 6 6 6 5 5 6 5 6 7 7 7 7 6 7 7 5 5 4 4 4 4 4 3 2 1 3 3 3 4 3 3 4 3 4 5 5 2
14 13 12 12 11 12 12 13 11 10 11 11 10 11 12 11 10 10 9 8 9 7 7 7 6 6 7 7 7 6 7 7 8 7 8 8 8 8 6 6 7 4 5 6 6 4 4 5 6 6 6 5 5 5 4 6 7 7 5 5 6 6 6 5 4 4 4 3 3 4 2 1 1 3 3 3 3 3 3 4 4 4 5 6 4
15 14 13 11 11 12 12 14 15 13 12 11 10 11 12 11 10 10 10 9 8 8 7 7 7 7 7 6 6 6 7 8 9 7 8 8 8 7 6 8 7 5 4 5 5 5 5 5 6 5 5 5 5 5 4 6 6 6 6 4 5 6 6 5 5 4 4 3 3 3 1 1 2 3 2 3 3 3 3 3 5 4 5 7 7
12 11 11 10 10 11 11 13 14 13 12 12 10 10 11 11 11 10 11 10 9 8 8 8 8 8 8 8 7 7 8 8 8 7 9 7 7 6 6 8 6 5 7 5 5 5 4 5 6 5 5 5 5 5 5 5 5 5 5 5 4 5 4 5 5 4 4 3 4 3 0 1 1 2 3 3 3 3 3 4 5 6 5 7 7
14 14 14 12 12 13 13 13 14 13 11 11 11 10 11 10 10 10 9 9 9 8 9 8 9 10 9 9 9 7 8 8 8 8 9 8 8 7 6 7 7 6 5 6 5 4 4 5 6 5 5 5 4 4 5 5 4 4 4 4 4 4 4 4 4 4 4 4 3 3 2 2 2 3 4 4 4 5 5 4 5 6 6 6 6
16 15 15 15 14 13 13 12 12 14 13 12 11 11 11 11 11 9 10 9 8 8 8 9 9 10 9 9 8 8 8 8 8 8 9 8 8 7 7 5 6 8 5 5 5 4 4 5 5 5 5 5 4 4 4 4 4 4 4 3 3 3 3 3 3 3 3 3 3 3 3 3 2 2 4 4 4 5 5 6 6 7 7 6 7
17 17 15 14 13 15 15 14 13 13 13 12 12 12 11 11 11 9 9 10 9 9 9 10 9 10 9 9 9 8 8 8 8 8 8 8 8 8 7 6 5 7 6 6 5 5 4 5 4 5 5 5 4 4 4 3 4 4 4 4 3 3 2 1 2 3 3 2 2 3 3 3 3 3 4 4 4 5 5 7 7 7 7 6 8
12 13 15 16 16 15 15 14 14 13 13 12 12 12 12 12 12 10 10 9 8 9 9 9 10 9 9 9 9 9 8 8 8 8 8 8 8 7 7 6 6 7 6 5 5 5 4 4 4 5 4 4 4 4 4 3 3 3 4 3 2 4 3 1 1 1 2 2 3 3 3 3 3 4 4 5 4 5 5 6 8 6 7 7 8
15 16 16 16 16 15 15 15 14 13 13 12 11 11 10 10 10 10 10 10 10 10 10 10 10 10 9 8 8 8 8 9 8 8 8 8 8 7 7 6 6 6 5 5 5 4 5 5 5 5 5 4 5 4 3 2 3 3 3 4 3 1 2 3 2 0 1 2 2 3 3 4 3 7 8 8 9 8 5 6 8 7 7 7 7
16 16 17 17 17 15 15 15 14 15 15 14 12 12 11 11 11 10 10 10 10 10 11 11 11 10 9 8 8 8 9 10 9 9 8 8 8 7 7 7 6 6 5 5 5 4 4 5 5 5 5 5 5 3 4 5 4 3 4 4 4 3 2 1 1 0 0 1 3 3 4 8 8 9 9 11 12 12 11 9 9 8 8 7 7
17 16 15 15 15 14 14 15 15 15 15 14 13 12 10 10 10 11 12 11 11 10 10 11 11 10 10 10 9 8 9 10 9 9 8 8 8 7 7 7 6 5 5 4 4 5 4 4 5 5 6 5 4 3 5 5 6 6 5 5 4 3 3 2 0 1 1 1 3 4 4 5 5 7 7 11 11 12 13 14 15 14 11 8 7
17 16 15 15 15 16 17 17 16 15 14 13 12 11 12 11 10 10 10 11 11 11 10 10 10 10 10 10 9 9 9 9 10 9 9 8 8 8 7 7 6 5 4 5 5 4 4 4 4 5 5 5 4 5 6 7 8 9 7 5 4 3 3 2 2 1 3 3 3 3 4 3 4 4 5 5 8 12 14 14 14 14 14 14 11
18 17 17 17 17 18 18 16 15 15 14 13 12 12 12 12 11 10 10 10 11 11 11 10 10 10 10 9 10 11 10 10 10 10 9 8 9 8 8 7 6 5 4 5 4 4 4 3 5 6 5 4 4 6 6 7 8 8 7 5 3 3 3 2 2 0 3 4 3 3 4 4 4 9 8 5 5 8 11 14 14 12 12 14 14
17 18 18 17 14 12 13 16 16 15 15 13 13 13 12 13 13 11 11 10 11 11 11 10 10 10 10 10 10 10 10 10 10 10 10 9 9 9 7 6 6 5 5 5 4 4 4 4 4 5 4 4 4 5 5 7 8 8 8 6 3 3 3 2 2 1 1 2 2 2 3 6 7 8 7 6 6 8 9 8 8 8 7 10 12
15 14 13 13 14 14 14 14 14 14 12 11 10 9 9 8 9 11 11 11 10 11 10 10 11 10 10 10 10 10 10 10 10 10 10 9 9 8 7 6 7 7 7 6 6 5 4 4 4 4 5 4 3 4 5 7 7 7 7 5 3 3 3 3 2 2 2 1 2 2 3 5 7 7 7 8 7 8 8 7 7 8 8 9 9
16 18 17 16 17 18 18 17 13 13 12 13 12 11 12 11 10 11 10 10 10 10 10 10 11 11 11 10 11 10 10 9 9 10 11 10 9 9 9 6 6 5 4 4 4 4 4 4 3 4 5 4 3 3 4 6 6 6 6 4 3 3 3 3 3 3 3 2 2 2 3 5 6 7 9 14 11 8 6 7 8 8 8 8 8
17 17 18 18 16 16 15 13 13 13 13 13 11 11 11 10 11 10 11 10 10 10 11 11 11 10 10 10 10 11 11 10 10 11 11 10 10 8 7 6 7 6 6 5 5 4 3 4 4 4 5 4 2 2 4 5 5 5 5 4 3 3 3 3 2 3 3 3 3 3 3 4 5 6 10 14 13 10 5 7 7 8 8 7 9
11 9 8 10 10 10 11 13 13 13 13 12 13 13 12 12 11 11 11 11 11 11 11 11 11 11 11 11 11 11 11 10 10 11 11 9 8 7 7 6 8 7 6 5 4 4 3 3 4 4 3 4 2 1 2 4 4 5 4 3 2 3 3 3 3 2 2 3 4 7 6 4 5 6 12 15 12 7 5 6 6 8 9 10 10
12 15 15 13 13 15 14 13 13 14 12 13 13 14 14 13 13 12 11 12 12 11 12 12 11 11 10 10 10 11 10 10 10 10 10 10 9 9 7 6 6 6 6 5 4 5 3 2 2 3 5 4 3 1 1 2 3 3 2 2 2 3 4 3 3 4 3 4 5 5 7 5 5 8 13 13 12 7 5 5 5 6 8 10 10
8 7 10 12 13 13 12 13 14 13 13 15 14 13 13 13 13 12 12 12 13 12 11 10 11 11 11 11 10 11 10 11 10 9 8 9 7 7 7 6 5 6 6 5 4 5 5 4 2 2 3 3 3 1 1 2 2 1 2 2 1 3 2 2 3 3 5 6 5 6 6 8 11 12 13 13 12 10 5 5 4 6 7 11 10
13 13 13 12 13 15 17 17 14 13 13 14 14 14 13 12 12 12 13 12 11 10 11 11 11 10 10 10 9 10 11 9 9 9 8 7 7 8 7 6 6 5 5 5 5 4 4 4 3 3 3 3 2 2 1 1 3 2 1 4 2 1 0 1 2 3 3 5 7 7 6 8 11 13 13 13 11 11 9 5 4 5 5 10 11
6 12 14 12 12 11 10 10 10 14 14 13 14 14 13 13 12 13 11 9 10 11 11 11 11 11 11 10 10 9 9 9 8 9 8 7 5 7 7 7 7 6 6 6 4 4 4 3 3 3 3 3 3 3 2 2 4 4 2 2 2 0 1 0 1 3 4 4 5 6 6 9 12 13 12 12 11 10 11 4 7 10 13 14 10
13 11 11 14 13 13 13 13 12 13 13 13 15 15 13 12 13 12 10 11 11 11 11 11 11 11 11 10 10 11 9 8 8 9 10 8 7 8 7 7 8 7 7 6 5 4 3 3 3 3 3 3 3 2 4 3 4 5 4 4 4 2 3 1 0 3 4 6 5 5 6 9 12 12 11 10 9 10 7 6 11 12 13 14 10
11 14 14 14 13 12 12 11 12 13 13 13 15 14 12 13 13 9 10 11 12 11 12 12 11 11 11 10 10 11 10 9 10 9 9 9 8 7 7 6 7 7 6 6 5 5 4 4 4 5 4 4 3 3 4 5 3 5 6 6 5 5 4 1 1 4 5 6 6 5 7 11 12 11 9 8 9 8 7 11 11 12 12 10 7
17 16 14 13 15 15 13 12 12 13 12 13 13 15 14 14 10 11 13 13 12 12 12 11 11 11 11 10 10 10 10 10 10 10 10 9 8 8 8 6 7 7 7 6 6 5 5 6 5 5 5 5 5 5 4 4 6 6 6 6 6 6 4 2 1 4 4 5 6 9 10 10 9 9 9 7 6 8 10 11 11 11 9 6 7
10 11 12 12 11 12 13 13 11 13 12 12 12 13 15 12 11 12 13 13 13 13 12 12 11 10 11 11 10 9 9 10 10 9 10 9 10 8 8 7 7 7 7 6 6 6 5 5 6 6 6 6 5 4 5 4 4 5 5 6 7 6 3 4 6 6 8 9 7 7 9 9 9 7 6 4 4 6 10 11 10 8 6 6 6
14 12 13 12 12 12 12 13 13 11 12 11 12 11 12 11 13 12 13 13 13 13 12 11 11 10 10 10 11 9 9 9 9 8 8 8 8 8 8 8 7 7 7 6 6 6 6 6 6 6 6 5 5 5 6 5 4 4 5 4 3 2 3 4 3 3 5 7 9 7 6 7 7 8 6 5 5 6 6 6 6 6 6 6 6
11 12 12 12 13 13 12 12 12 12 11 11 11 10 10 11 11 12 12 13 12 13 12 12 12 11 10 10 10 12 12 8 9 9 9 7 7 8 8 8 9 8 8 7 6 6 7 7 7 6 5 4 6 6 6 7 7 6 6 3 2 1 1 1 4 5 5 4 5 6 6 3 5 6 7 6 6 6 5 4 6 6 6 6 6
14 13 13 14 12 13 13 13 11 10 11 10 10 9 11 12 12 12 13 13 12 12 11 12 11 10 10 10 10 10 10 9 9 8 8 9 9 8 8 6 6 7 8 8 7 7 7 7 7 7 7 7 6 7 9 9 8 8 6 4 3 4 1 2 3 4 4 4 3 5 7 7 6 6 6 7 6 6 6 6 6 6 7 7 7
8 10 11 11 11 12 13 12 10 10 10 11 9 9 10 11 11 11 13 13 12 12 11 11 11 10 10 10 9 9 9 9 9 8 7 3 3 3 7 8 7 7 10 11 10 9 9 7 7 8 9 10 10 12 13 12 12 10 9 7 4 3 3 3 4 4 1 2 2 3 5 4 5 5 6 6 7 6 7 7 7 6 6 7 7
11 11 9 10 10 10 11 11 10 10 10 10 10 10 10 11 11 12 13 13 13 11 10 9 10 10 11 10 9 9 8 8 8 8 7 7 5 3 6 3 1 4 8 11 11 13 11 12 10 8 8 10 9 9 9 11 12 11 9 5 5 6 5 5 4 1 1 0 2 5 6 5 4 3 4 6 6 6 7 6 6 6 6 7 7
Wind_Direction
155 146 139 127 126 119 117 115 116 117 119 127 130 131 130 131 130 129 134 135 139 134 126 127 120 109 93 101 102 92 88 80 72 62 68 68 69 69 74 70 62 55 45 44 58 71 68 64 66 57 59 65 68 63 52 44 32 38 60 51 49 48 27 9 1 345 17 352 5 355 2 26 86 61 59 55 53 48 43 42 36 38 32 27 19
152 142 135 126 126 128 130 131 135 132 143 140 143 140 135 136 135 136 133 133 133 126 125 111 116 130 126 116 110 100 94 89 86 65 66 66 57 52 53 56 57 55 49 51 56 55 61 57 53 56 63 72 75 68 56 45 34 32 22 61 43 61 49 12 0 9 28 23 331 344 350 17 66 64 57 51 53 51 44 44 39 39 33 25 16
165 142 134 134 133 144 145 148 151 147 146 144 143 137 137 137 134 135 137 132 109 81 62 118 122 115 118 120 117 103 67 86 88 79 69 72 55 46 44 44 51 49 43 49 54 47 54 59 54 57 56 67 70 56 49 44 35 36 34 57 41 43 57 26 19 34 0 304 234 13 28 354 322 11 39 51 56 51 48 44 40 39 33 26 16
166 156 150 137 142 153 156 158 152 145 145 145 153 145 139 137 138 138 136 120 113 128 121 71 91 97 91 101 91 93 114 95 87 78 70 63 53 48 49 48 50 51 45 50 55 52 53 61 63 61 60 59 72 69 53 48 35 34 35 36 61 55 28 26 21 15 29 4 32 63 297 97 348 4 339 326 74 59 51 41 36 34 29 24 18
162 160 147 147 157 167 167 153 145 150 154 157 155 149 146 146 146 143 139 131 136 140 135 137 127 103 97 89 93 90 74 84 87 66 56 66 63 44 41 42 52 53 48 50 59 59 58 65 71 68 67 55 64 69 63 56 51 45 41 48 42 91 57 43 24 25 32 26 112 63 9 27 54 293 310 289 359 56 49 50 33 31 30 23 19
167 160 150 155 162 161 157 151 153 155 158 159 153 145 142 142 138 137 132 135 143 149 147 147 142 135 131 126 120 109 108 102 100 110 83 61 56 53 46 40 51 58 49 52 55 61 62 62 67 70 65 60 63 71 66 57 46 46 36 54 53 37 91 67 39 24 43 42 45 61 84 114 325 303 31 321 7 71 74 53 33 21 30 21 24
172 160 158 168 169 160 154 158 162 158 154 142 140 139 138 138 141 145 145 141 146 150 156 144 140 143 144 142 140 141 131 95 93 87 95 91 78 61 50 41 44 58 53 54 57 61 63 60 68 70 70 70 68 70 64 58 53 49 41 45 45 43 45 71 48 348 36 43 45 58 61 51 34 35 20 286 345 333 27 25 30 11 18 25 22
176 173 177 180 172 166 156 160 163 155 143 144 143 140 141 145 148 148 144 145 148 150 155 155 147 147 133 123 122 125 128 130 125 108 100 96 81 67 60 52 49 46 50 50 56 62 65 63 67 73 75 66 68 61 63 53 53 44 45 46 50 51 54 69 66 38 63 37 36 48 46 49 46 51 37 47 324 319 313 35 67 352 17 31 24
178 176 184 182 175 167 162 161 155 146 149 150 145 140 138 141 139 134 138 141 143 153 152 157 149 145 136 130 119 117 123 122 120 112 99 87 85 74 72 65 62 55 44 50 48 52 56 67 66 72 71 66 63 62 56 55 58 61 57 55 58 55 57 65 69 57 55 42 39 30 40 40 40 47 35 32 46 342 303 360 340 0 95 16 12
178 175 180 176 170 165 159 152 152 153 145 136 130 131 133 131 133 132 135 140 146 150 148 139 132 127 129 131 129 131 124 114 111 110 102 95 94 85 76 64 52 60 51 49 50 47 57 60 68 71 73 69 64 68 67 66 64 67 67 73 71 70 59 64 71 69 64 57 57 51 43 21 33 26 28 18 34 66 2 334 349 349 344 353 22
176 171 183 171 162 158 150 159 155 149 140 133 132 134 134 134 132 126 132 134 142 143 140 136 131 133 132 137 136 134 133 129 123 112 112 104 102 91 80 74 52 53 48 47 49 50 60 64 70 70 67 67 66 65 67 74 73 74 73 71 68 72 71 72 71 67 68 63 56 55 59 53 56 53 22 22 40 12 352 349 342 348 321 323 358
175 171 178 166 156 154 155 159 158 152 137 136 139 135 134 132 128 120 122 132 135 135 131 134 138 137 139 143 142 144 142 140 135 130 126 121 119 110 102 91 79 65 57 58 46 53 67 66 68 68 66 67 67 74 74 76 76 74 69 72 71 70 73 74 73 72 70 70 63 61 65 65 59 59 47 45 42 34 25 329 336 329 317 248 309
177 177 174 170 165 162 161 164 155 152 145 144 144 138 133 132 131 125 125 129 130 131 129 131 135 140 143 140 135 131 126 123 122 122 133 131 132 126 125 117 104 78 59 67 50 58 69 68 65 67 68 69 79 77 76 76 78 78 78 75 75 73 75 79 78 75 76 76 78 69 71 67 66 60 62 60 45 40 42 2 327 323 294 311 326
177 174 171 171 168 167 167 163 156 149 146 144 145 140 137 133 130 122 123 121 122 120 125 123 125 130 132 130 126 124 121 123 127 131 135 129 133 135 135 124 105 98 85 73 70 73 64 69 74 71 70 74 78 80 79 81 82 84 82 82 81 82 80 80 81 80 76 76 78 77 67 68 67 58 60 59 48 39 24 19 319 313 265 288 309
179 172 170 171 169 164 164 161 153 150 146 143 149 143 135 132 130 124 121 118 118 120 119 119 120 118 118 120 122 122 121 121 127 132 135 135 137 130 123 114 108 98 89 83 72 74 74 71 71 69 65 69 74 78 80 79 83 84 85 88 83 83 82 81 78 80 78 76 72 76 76 61 53 44 47 37 40 37 32 357 10 357 344 320 336
179 172 166 168 167 162 159 157 152 150 148 145 151 146 136 134 130 129 130 128 121 118 115 118 118 117 120 123 124 121 122 120 118 121 124 130 134 126 115 107 104 99 87 84 66 81 79 76 68 66 67 68 71 80 83 85 86 87 86 84 84 81 86 82 82 81 81 79 79 72 68 55 43 33 32 32 27 25 18 17 22 32 22 340 338
179 175 166 164 163 165 158 155 152 148 151 154 158 150 138 134 130 119 116 114 115 115 116 117 120 121 125 125 124 123 128 131 131 130 127 121 118 115 110 109 102 97 96 89 87 77 79 79 75 67 64 67 68 69 81 86 83 86 91 91 88 83 84 85 85 85 86 84 74 67 68 61 43 37 34 33 28 23 22 11 24 35 4 346 337
180 174 161 162 162 161 155 154 155 152 153 151 148 142 137 135 134 123 122 124 121 120 120 125 125 123 126 124 123 128 129 128 128 129 128 122 115 106 106 101 101 104 99 95 89 81 73 74 77 71 67 64 67 66 73 79 85 85 90 91 98 94 88 84 84 92 90 85 76 63 57 55 40 43 37 26 27 25 18 11 359 350 44 354 303
174 173 161 165 165 162 155 154 153 148 146 144 137 134 126 125 129 133 132 131 132 125 120 117 122 125 126 126 126 123 124 124 125 128 129 125 117 110 105 111 105 100 98 94 88 83 81 72 75 74 67 66 63 63 69 73 87 97 96 98 97 97 96 91 91 95 90 84 77 67 52 55 40 44 33 20 14 16 5 1 342 331 324 268 279
174 172 168 166 166 160 152 153 154 150 147 147 144 137 131 131 126 120 115 122 122 124 127 124 125 119 115 112 115 124 129 130 132 132 128 122 119 115 115 106 109 101 95 93 88 88 85 83 74 77 73 67 67 60 67 80 88 98 106 102 102 102 97 98 89 80 90 86 82 75 61 57 33 42 28 14 5 354 353 340 329 312 301 275 252
172 171 167 165 161 158 152 150 145 141 142 147 150 142 135 133 129 131 135 135 131 135 130 131 125 120 120 123 126 127 127 126 125 126 120 117 113 109 108 114 102 95 102 91 90 87 85 88 82 76 76 72 73 67 62 83 90 98 102 108 109 104 105 103 96 81 80 88 90 89 71 42 28 49 18 358 354 340 334 323 303 301 305 300 281
167 167 165 161 154 150 151 144 139 141 150 154 153 140 140 142 141 138 132 139 140 142 137 131 122 118 120 124 123 125 126 124 120 119 114 113 112 111 115 104 95 90 95 97 91 87 87 91 88 82 79 77 75 74 71 82 95 101 103 115 113 110 106 104 98 97 88 91 103 94 56 13 9 35 358 341 318 319 318 321 318 314 306 306 297
165 166 164 160 153 152 155 151 148 152 157 156 155 151 147 141 138 145 145 152 149 145 136 129 123 119 117 116 116 120 124 122 118 112 109 112 111 112 112 105 102 96 82 89 94 91 90 91 89 84 84 78 74 77 69 83 90 104 111 116 123 120 120 118 117 125 124 118 92 90 68 328 350 354 322 297 299 306 311 317 310 312 306 299 300
156 159 159 156 150 150 151 152 150 155 160 162 161 154 145 147 149 150 153 152 146 140 134 128 124 116 114 116 119 125 122 122 116 114 113 113 111 108 109 104 104 101 96 82 81 88 89 90 91 84 79 80 74 73 72 70 84 101 112 122 128 126 127 133 137 144 144 133 131 106 131 288 297 309 309 313 316 317 319 315 312 306 299 298 296
156 158 158 155 154 158 163 164 158 156 161 162 162 157 149 149 151 156 152 148 141 139 133 127 124 126 134 134 136 136 131 125 118 116 116 116 114 111 107 110 107 98 97 97 84 80 86 83 85 87 84 75 71 72 77 73 70 83 102 114 128 131 135 142 150 160 163 147 135 136 207 250 258 301 322 330 321 328 322 319 306 301 302 294 296
160 159 159 162 164 165 165 166 163 161 164 166 164 157 152 153 160 156 151 145 143 136 129 130 136 136 137 139 139 133 130 126 121 119 122 121 118 115 110 105 114 111 102 91 96 84 88 88 85 83 81 78 71 71 76 79 76 77 81 85 97 126 144 151 153 167 163 152 135 161 217 235 242 272 303 309 320 320 316 311 309 305 301 300 300
164 165 166 165 165 168 170 169 167 165 165 166 163 160 157 157 156 155 151 146 144 139 141 142 141 139 139 139 139 138 135 127 121 122 122 121 119 118 115 115 115 113 111 104 90 91 81 89 86 81 74 77 74 67 68 66 72 77 86 90 104 122 144 148 178 176 165 113 143 186 222 229 246 259 280 294 304 309 309 309 304 301 302 307 305
161 163 165 171 174 172 170 170 168 169 168 165 165 163 162 161 159 155 152 147 147 143 143 140 139 135 140 145 145 140 134 123 119 123 125 123 120 116 114 116 114 107 106 104 100 95 87 83 81 78 73 74 73 64 55 52 54 67 86 84 102 149 160 187 227 214 87 130 188 223 233 240 246 263 270 283 288 298 304 301 304 308 310 311 310
168 172 173 172 174 176 173 171 170 166 167 166 162 164 164 162 157 155 153 152 147 144 146 146 144 144 148 148 140 136 133 121 123 124 125 123 120 118 116 115 110 106 102 101 99 97 97 85 74 76 71 64 66 54 48 47 64 56 74 85 67 83 170 191 217 4 100 157 218 242 257 267 266 281 284 302 307 302 299 303 308 316 313 314 307
175 176 177 179 178 174 172 169 169 170 168 167 167 168 167 161 157 154 151 149 147 152 150 150 149 148 145 141 141 141 135 124 128 129 128 125 121 119 115 110 106 106 108 105 96 92 90 95 89 75 70 64 56 44 32 37 66 91 76 83 80 72 83 101 322 36 2 148 228 251 272 277 298 312 315 313 310 310 309 311 312 319 316 310 307
181 178 178 177 174 172 171 172 173 172 172 169 169 165 160 160 160 159 156 155 150 152 153 152 149 147 145 142 139 138 133 130 131 126 126 125 122 119 114 111 111 114 113 109 101 95 88 87 90 88 75 66 54 42 32 66 77 84 85 79 84 68 51 60 28 135 201 199 240 264 275 305 319 323 322 312 311 313 315 318 320 319 315 314 314
180 180 177 175 174 173 175 178 174 171 170 171 169 164 159 161 158 161 158 153 151 153 154 151 146 145 145 144 138 138 134 129 130 132 132 129 123 119 118 120 120 120 114 104 100 100 99 95 91 82 76 70 61 38 51 70 74 72 79 86 85 75 57 27 10 155 180 188 237 277 295 300 314 312 308 320 317 315 318 319 319 317 317 314 311
181 179 180 179 179 179 177 173 170 171 172 175 168 162 164 159 159 159 154 159 156 154 151 148 148 146 146 141 141 141 140 139 139 136 134 131 126 122 124 127 129 132 117 109 116 106 100 97 92 87 76 64 65 46 66 79 79 75 75 81 71 81 80 40 0 206 171 185 231 283 295 306 322 316 321 322 317 318 319 320 318 320 316 319 314
183 182 182 181 175 172 174 175 176 174 172 169 168 168 167 163 156 153 157 161 156 153 150 149 148 146 145 145 145 142 140 140 139 137 136 134 131 133 134 133 127 119 117 115 109 110 109 94 96 94 88 73 65 52 76 84 80 73 66 66 55 54 61 50 27 31 152 211 232 265 312 323 317 314 313 320 328 324 322 320 322 319 315 311 311
181 180 180 176 175 171 170 171 174 172 167 161 167 164 148 146 152 154 159 158 160 152 150 149 148 146 146 147 146 143 139 140 142 140 139 138 136 133 136 142 139 140 136 135 131 119 111 101 93 92 89 72 58 66 88 89 87 82 74 69 46 41 38 34 18 33 49 16 301 277 285 291 296 299 306 318 334 328 319 317 317 320 314 311 306
185 182 180 174 174 176 176 177 169 166 166 165 164 157 157 161 161 158 154 155 153 151 147 147 150 154 154 152 148 146 143 142 143 144 143 143 143 147 148 152 138 128 116 109 103 106 110 110 101 95 93 83 61 71 90 85 81 75 70 57 53 46 33 19 13 7 2 346 313 307 320 302 295 302 307 321 338 331 322 321 325 316 313 306 301
185 181 180 179 176 173 172 164 166 168 163 165 156 155 152 148 153 155 151 150 151 153 156 157 156 156 154 152 149 148 149 148 149 148 149 149 150 150 151 148 133 140 139 139 146 136 139 130 123 114 111 112 102 96 98 96 90 88 71 53 51 50 38 19 349 330 326 309 310 311 298 295 302 306 313 323 337 337 326 328 322 318 309 312 313
172 164 158 161 166 162 161 164 163 165 163 157 156 154 150 152 155 153 154 156 160 162 162 161 160 158 155 154 154 154 154 153 153 154 153 154 154 151 156 158 146 150 151 159 145 129 146 145 136 144 147 136 161 170 92 80 81 79 90 97 80 78 40 18 339 321 306 307 315 323 314 300 311 312 322 322 333 340 330 323 325 318 325 330 326
170 168 165 163 164 164 164 163 162 163 161 155 156 154 154 159 159 161 163 164 167 164 165 164 159 156 153 153 155 156 157 157 157 155 154 154 159 160 159 150 150 149 156 150 145 143 154 162 159 156 171 155 181 209 64 55 72 92 105 110 104 85 55 7 354 338 332 349 329 316 316 320 315 318 321 324 332 344 325 323 315 323 331 332 325
157 161 165 160 152 149 160 166 168 165 156 157 156 157 160 161 164 163 167 170 172 168 161 153 153 153 154 160 162 159 158 159 157 150 150 151 146 141 149 151 154 150 149 158 156 158 164 185 184 203 192 163 181 234 326 325 356 17 137 126 131 79 43 356 351 359 353 334 323 317 322 331 332 331 328 326 332 338 337 311 327 339 334 325 322
161 159 149 155 164 168 171 171 167 158 157 158 158 158 163 164 163 168 176 174 162 151 149 150 149 154 160 160 159 159 157 157 154 151 146 142 145 144 142 142 147 147 146 159 171 175 170 171 180 203 202 194 196 202 274 298 287 279 220 148 125 129 175 51 3 340 336 305 305 310 311 320 329 328 325 326 334 335 339 323 327 338 313 303 318
140 150 154 157 162 165 161 159 158 157 158 158 159 162 164 163 166 178 176 153 147 146 146 153 157 159 160 161 159 155 154 151 146 142 143 142 140 135 143 150 152 155 164 177 180 176 171 169 173 189 216 218 226 199 198 250 250 264 263 202 144 196 180 131 354 328 300 278 276 292 305 312 321 322 322 327 333 337 336 331 325 318 320 329 331
148 158 165 157 159 163 165 163 160 161 160 162 162 163 165 164 176 178 155 149 146 148 153 156 157 160 163 160 157 153 153 150 151 152 147 149 149 150 152 155 155 164 171 179 181 175 156 165 182 199 222 234 241 248 204 216 233 238 259 249 215 193 218 190 129 300 292 287 295 295 294 310 319 321 321 324 331 339 337 324 319 328 329 329 332
160 162 162 160 159 160 158 161 160 162 163 164 165 164 165 171 180 153 144 143 146 152 155 157 162 163 161 160 158 157 154 155 153 152 151 150 158 160 160 169 166 167 174 178 185 168 160 171 195 215 222 235 239 231 242 225 226 235 241 241 222 216 208 192 206 245 264 273 292 304 306 309 312 315 319 328 336 334 323 318 326 328 331 334 336
163 163 162 163 161 160 158 160 164 164 164 165 167 166 168 176 163 146 151 152 154 156 158 161 162 162 161 158 156 158 158 157 158 156 157 160 163 165 168 178 167 172 175 179 184 174 184 196 193 209 220 225 232 227 244 235 222 240 243 240 244 215 223 200 250 255 257 264 278 289 296 306 311 321 333 340 337 326 323 321 324 330 336 344 341
145 152 160 157 151 153 155 157 163 165 164 166 170 170 172 171 153 155 154 154 154 156 159 161 161 161 161 156 157 160 160 161 160 165 164 166 170 174 174 175 179 181 180 180 181 182 196 193 205 214 214 217 222 226 239 245 237 243 249 249 248 246 241 246 252 271 279 289 296 316 328 335 340 339 337 334 329 319 314 313 324 337 345 341 338
158 157 150 149 153 154 159 159 161 167 165 169 170 177 172 152 156 155 153 153 156 158 159 160 162 160 158 159 159 162 162 163 164 164 165 170 171 176 180 179 185 185 184 186 178 183 190 196 209 217 217 214 218 220 234 248 249 245 249 241 257 270 281 281 284 300 324 337 333 339 324 308 296 295 289 283 302 320 325 330 332 333 339 338 330
154 155 158 151 156 157 158 161 163 166 166 168 172 169 153 151 155 153 153 154 157 162 163 164 160 159 161 163 164 162 160 165 170 168 170 172 177 181 185 188 187 188 184 190 182 185 190 196 209 207 198 205 222 224 233 234 239 233 240 225 229 240 246 306 323 317 316 314 320 324 330 345 350 358 350 343 334 325 313 320 326 331 334 335 329
155 161 160 160 159 160 162 162 164 164 164 167 169 160 155 156 157 156 154 157 161 160 158 157 158 158 162 165 163 166 169 166 169 173 179 180 180 183 189 197 202 185 185 181 185 195 197 201 195 187 182 203 212 223 232 212 217 207 205 204 227 235 237 263 268 296 317 328 347 349 359 348 352 341 330 324 315 323 320 320 325 335 337 337 340
149 150 156 157 160 155 158 161 161 163 164 166 162 156 157 160 157 158 158 158 157 158 159 161 161 162 161 162 164 169 169 167 166 170 165 130 31 170 189 189 202 208 200 193 178 190 196 183 186 203 187 181 198 216 222 205 214 216 216 202 197 193 209 239 267 296 266 318 341 334 309 306 308 328 321 312 309 313 315 324 324 327 335 336 338
151 148 153 155 156 154 152 157 162 164 166 164 159 156 157 160 160 161 162 158 156 158 160 160 162 166 167 167 164 166 168 165 167 163 162 164 150 65 51 63 223 208 210 214 203 209 190 183 181 197 220 238 239 228 212 205 212 216 213 193 193 206 216 239 243 75 36 344 313 325 308 313 298 296 293 287 293 303 301 309 311 315 314 327 330